Terug naar catalogus

SL-12 DEB

ActiefHEO
NORAD 39800·DEBRIS·🇷🇺 Russia

Gelanceerd Sep 25, 2008 vanaf Baikonur Cosmodrome

Loading…

Volgende Passages (komende 24 uur)

TLE

VersSource: Space-Track

Epoch: Sep 14, 2026, 02:14 UTC

1 39800U 08046M   26257.09346087  .00000038  00000-0  40622-3 0  9995
2 39800  65.2236 329.5424 5680043 246.1331  46.0406  4.24167703190308

Volg SL-12 DEB in realtime met AllMySat

Download on the App Store